CZ-6A DEB, 60830

Orbit data source: Space-Track

CZ-6A DEB, 60830 is space debris in LEO originally from a launch on Tue, 06 Aug 2024 UTC launched from the Taiyaun Space Center, China (TSC). Debris objects in space refer to the collection of defunct objects orbiting the Earth. Examples of debris include non-operational satellites, rocket bodies, and fragments generated from explosions, collisions, or faulty payload assembly.

Loading next visibility...
Identifier
60830, 2024-140HH
Orbit
LEO
Country
Flag of CNCN / PRC
Related business
Manufacturer
SAST
Mission
Spacecraft
Bus & Motor
Unknown
Mass
Unknown
Launch date (UTC)
2024-08-06 (2 years ago)
Launch vehicle
Unknown
Launch site
Taiyaun Space Center, China (TSC)
Object type
Payload
Rocket body
Debris
Shape & HBR
Unknown shape, 0.2 m
Radar Cross Section
Medium (>0.1 m² and <1 m²)

Expand to show TLE details & history
Last TLE update: 17 hours ago

TLE from 17 hours ago
0 CZ-6A DEB
1 60830U 24140HH  26171.25902939  .00000395  00000-0  24970-3 0  9996
2 60830  88.9062 269.8687 0146496 250.4859 108.0447 13.97251825 94382
Epoch: 2026-06-20T06:13Z
TLE epoch observation values (Epoch: 2026-06-20T06:13:00.139Z)
Latitude
0.00005°
Longitude
-91.8581°
Altitude
940.8 km
Speed
7.364 km/s
True Right ascension
17h 59m 28s
True Declination
0° 00' 00"
Sunlit
Object was in full shadow at epoch
Visualization orbit readout
Latitude
Unknown
Longitude
Unknown
Altitude
Unknown
Speed
Unknown
Apparent Right ascension
Unknown
Apparent Declination
Unknown
Sunlit
N/A
Visualization observer readout
Local Sidereal Time
10:19:06
Azimuth
Unknown
Elevation
Unknown
Doppler factor
Unknown
Orbital elements
Apogee altitude
1,006.937 km
Perigee altitude
793.684 km
Semi-major axis
7,278.448 km
Eccentricity
0.01465
Inclination
88.9062°
RAAN
269.8687°
Arg. of periapsis
250.4859°
True anomaly
109.63165°
Mean anomaly
108.0447°
Eccentric anomaly
108.8391°
Mean motion
3.4953 °/min
Orbital period
103 mins
BSTAR
0.0002497
Loading maneuver chart data...
Computing Atmospheric mass density...
Loading historical data...
Loading historical data...
Loading historical data...
Loading historical data...
Loading historical data...
Loading historical data...
Loading historical data...

Documentation

Showing up to 5 results
|